TVS3TH LIMJ-LEMD

Flight info

Callsign TVS3TH
Flight time N/A
Altitude 39000
Route LAGEN DCT GEKBA DCT VAMTU DCT KOLON DCT GANGU DCT PADKO DCT DIVKO DCT NILDU DCT NENDA DCT BCN DCT ANTON DCT XIKEN DCT OSLAP N975 DISVU/N0492F310 N975 ADUXO
Aircraft B78X/H-SDE1E2E3FGHIJ2J3J4J5M1RWXY/LB1D1

Departure

Time 2026-05-08 13:19
Airport Genoa Cristoforo Colombo Airport (LIMJ)

Arrival

Time N/A
Airport Adolfo Suárez Madrid–Barajas Airport (LEMD)
Time Latitude Longitude Altitude Speed Heading
2026-05-08 13:17 44.41617 8.82810 25 ft 0 kts 285°
2026-05-08 13:18 44.41443 8.82916 26 ft 0 kts 105°
2026-05-08 13:18 44.41422 8.83027 27 ft 43 kts 105°
2026-05-08 13:19 44.41261 8.83829 29 ft 126 kts 106°
2026-05-08 13:19 44.40960 8.85297 165 ft 184 kts 102°
2026-05-08 13:19 44.40571 8.87180 952 ft 206 kts 103°
2026-05-08 13:19 44.40187 8.88991 2536 ft 187 kts 104°
2026-05-08 13:20 44.39665 8.90800 3117 ft 222 kts 117°
2026-05-08 13:20 44.38563 8.92396 3831 ft 235 kts 153°
2026-05-08 13:20 44.36936 8.92622 4785 ft 246 kts 195°
2026-05-08 13:20 44.35497 8.91306 5686 ft 259 kts 233°
2026-05-08 13:21 44.34848 8.88935 6665 ft 270 kts 260°
2026-05-08 13:21 44.34618 8.86272 7586 ft 281 kts 262°
2026-05-08 13:21 44.34263 8.83536 8546 ft 291 kts 255°
2026-05-08 13:21 44.33621 8.80845 9534 ft 300 kts 249°
2026-05-08 13:22 44.32853 8.78055 10503 ft 308 kts 250°
2026-05-08 13:22 44.32152 8.75227 11444 ft 319 kts 251°
2026-05-08 13:22 44.31473 8.72305 12394 ft 332 kts 251°
2026-05-08 13:22 44.30726 8.69180 13410 ft 346 kts 251°
2026-05-08 13:23 44.29934 8.65956 14380 ft 357 kts 251°
2026-05-08 13:23 44.29116 8.62621 15338 ft 368 kts 251°
2026-05-08 13:23 44.28287 8.59205 16300 ft 376 kts 251°
2026-05-08 13:23 44.27438 8.55713 17299 ft 383 kts 252°
2026-05-08 13:24 44.26571 8.52169 18323 ft 389 kts 252°
2026-05-08 13:24 44.25695 8.48599 19236 ft 393 kts 251°
2026-05-08 13:24 44.24806 8.44973 20155 ft 397 kts 251°
2026-05-08 13:24 44.23910 8.41321 21112 ft 399 kts 251°
2026-05-08 13:25 44.22918 8.37717 22096 ft 399 kts 243°
2026-05-08 13:25 44.21509 8.34396 23098 ft 398 kts 237°
2026-05-08 13:25 44.19928 8.31234 24059 ft 397 kts 235°
2026-05-08 13:25 44.18285 8.28154 24944 ft 395 kts 234°
2026-05-08 13:26 44.16616 8.25134 25854 ft 391 kts 234°
2026-05-08 13:26 44.14936 8.22171 26770 ft 388 kts 234°
2026-05-08 13:26 44.13258 8.19273 27748 ft 383 kts 233°
2026-05-08 13:26 44.11580 8.16430 28715 ft 377 kts 234°
2026-05-08 13:27 44.09892 8.13667 29742 ft 371 kts 234°
2026-05-08 13:27 44.08204 8.10988 30672 ft 364 kts 234°
2026-05-08 13:27 44.06525 8.08398 31571 ft 356 kts 233°
2026-05-08 13:27 44.04866 8.05904 32493 ft 347 kts 233°
2026-05-08 13:28 44.03225 8.03503 33444 ft 337 kts 233°
2026-05-08 13:28 44.01611 8.01207 34361 ft 327 kts 233°
2026-05-08 13:28 44.00035 7.99009 35170 ft 314 kts 233°
2026-05-08 13:28 43.98510 7.96867 35766 ft 311 kts 232°
2026-05-08 13:29 43.97015 7.94725 36017 ft 316 kts 233°
2026-05-08 13:29 43.95466 7.92462 36012 ft 329 kts 233°
2026-05-08 13:29 43.93872 7.90105 36026 ft 340 kts 233°
2026-05-08 13:29 43.92234 7.87664 36044 ft 352 kts 233°
2026-05-08 13:30 43.90544 7.85123 36047 ft 365 kts 233°
2026-05-08 13:30 43.88803 7.82478 36051 ft 378 kts 233°
2026-05-08 13:30 43.87008 7.79730 36045 ft 390 kts 233°
2026-05-08 13:30 43.85165 7.76896 36038 ft 402 kts 233°
2026-05-08 13:31 43.83271 7.73973 36046 ft 413 kts 233°
2026-05-08 13:31 43.81332 7.70971 36048 ft 424 kts 233°
2026-05-08 13:31 43.77323 7.64740 36028 ft 443 kts 233°
2026-05-08 13:32 43.73165 7.58217 36036 ft 461 kts 233°
2026-05-08 13:32 43.68900 7.51475 36030 ft 476 kts 233°
2026-05-08 13:33 43.64537 7.44562 36024 ft 477 kts 233°
2026-05-08 13:33 43.60176 7.37652 36028 ft 477 kts 234°
2026-05-08 13:34 43.58332 7.33909 36044 ft 469 kts 246°
2026-05-08 13:34 43.57055 7.29793 36031 ft 466 kts 253°
2026-05-08 13:34 43.55284 7.21247 36026 ft 459 kts 257°
2026-05-08 13:35 43.53863 7.12736 36022 ft 453 kts 258°
2026-05-08 13:35 43.52522 7.04274 36020 ft 451 kts 259°
2026-05-08 13:36 43.51197 6.95825 36016 ft 451 kts 259°
2026-05-08 13:36 43.49874 6.87369 36014 ft 452 kts 259°